Joplin, MO

9:58 PM CDT on September 18, 2019 (GMT -0500)
Joplin Regional

Weather History for KJLN - August, 2019

Change the Weather History Date:

Friday, August 23, 2019

  Actual Average Record
Temperature  
Mean Temperature 76 °F 79 °F  
Max Temperature 80 °F 91 °F 102 °F (1947)
Min Temperature 71 °F 68 °F 53 °F (2009)
Degree Days  
Heating Degree Days 0 0  
Month to date heating degree days 0 0  
Since 1 June heating degree days 1 5  
Since 1 July heating degree days 0 0  
Cooling Degree Days 10 14  
Month to date cooling degree days 328 354  
Year to date cooling degree days 1179 1325  
Since 1 June cooling degree days 1026 1145  
Growing Degree Days 26 (Base 50)    
Moisture  
Dew Point 71 °F    
Average Humidity 91    
Maximum Humidity 100    
Minimum Humidity 74    
Precipitation  
Precipitation 0.11 in 0.11 in 1.47 in (1988)
Month to date precipitation 3.87 2.37  
Year to date precipitation 46.78 29.99  
Sea Level Pressure  
Sea Level Pressure 30.00 in    
Wind  
Wind Speed 3 mph ()    
Max Wind Speed 12 mph    
Max Gust Speed 16 mph    
Visibility 9.3 miles    
Events Rain    
T = Trace of Precipitation, MM = Missing Value Source: Averaged Metar Reports

Daily Weather History Graph

Daily Weather History Graph

Search for Another Location

Airport or City:

Astronomy

Aug. 23, 2019 Rise Set
Actual Time 6:41 AM CDT 7:59 PM CDT
Civil Twilight 6:13 AM CDT 8:26 PM CDT
Nautical Twilight 5:41 AM CDT 8:59 PM CDT
Astronomical Twilight 5:07 AM CDT 9:32 PM CDT
Moon 12:00 AM CDT (8/23) 2:08 PM CDT (8/23)
Length of Visible Light 14h 12m
Length of Day
13h 18m
Waning Gibbous, 49% of the Moon is Illuminated
Aug 23
Waning Gibbous
Aug 30
New
Sep 5
First Quarter
Sep 13
Full
Sep 21
Last Quarter

Hourly Weather History & Observations

Time (CDT) Temp. Dew Point Humidity Pressure Visibility Wind Dir Wind Speed Gust Speed Precip Events Conditions
12:53 AM 73.9 °F 72.0 °F 93% 29.99 in 10.0 mi WNW 3.5 mph - N/A   Overcast
1:05 AM 73.9 °F 72.0 °F 93% 30.01 in 10.0 mi WSW 4.6 mph - N/A   Overcast
1:15 AM 73.9 °F 72.0 °F 93% 30.00 in 1.8 mi Calm Calm - 0.06 in Rain Heavy Rain
1:23 AM 73.0 °F 73.0 °F 100% 30.00 in 3.0 mi Calm Calm - 0.07 in Rain Light Rain
1:53 AM 73.9 °F 73.0 °F 97% 29.95 in 9.0 mi Calm Calm - 0.07 in Rain Light Rain
2:10 AM 73.0 °F 72.0 °F 96% 29.98 in 10.0 mi ENE 4.6 mph - 0.00 in Rain Light Rain
2:53 AM 73.0 °F 72.0 °F 96% 29.93 in 10.0 mi ESE 3.5 mph - 0.00 in   Mostly Cloudy
3:27 AM 73.0 °F 72.0 °F 96% 29.95 in 10.0 mi SSE 6.9 mph - N/A   Overcast
3:53 AM 72.0 °F 71.1 °F 97% 29.93 in 10.0 mi SE 3.5 mph - N/A   Overcast
4:03 AM 72.0 °F 71.1 °F 97% 29.96 in 10.0 mi Calm Calm - N/A   Overcast
4:53 AM 72.0 °F 71.1 °F 97% 29.95 in 9.0 mi North 4.6 mph - N/A   Overcast
5:41 AM 72.0 °F 72.0 °F 100% 30.00 in 9.0 mi Calm Calm - N/A   Overcast
5:53 AM 72.0 °F 71.1 °F 97% 29.98 in 8.0 mi Calm Calm - N/A   Mostly Cloudy
6:53 AM 72.0 °F 71.1 °F 97% 29.99 in 10.0 mi Calm Calm - 0.00 in Rain Light Rain
7:53 AM 72.0 °F 71.1 °F 97% 30.00 in 9.0 mi Calm Calm - 0.01 in Rain Light Rain
8:53 AM 72.0 °F 70.0 °F 93% 30.00 in 10.0 mi SSE 4.6 mph - 0.01 in   Scattered Clouds
9:23 AM 72.0 °F 70.0 °F 93% 30.04 in 10.0 mi SSE 4.6 mph - N/A   Mostly Cloudy
9:53 AM 73.0 °F 69.1 °F 87% 30.02 in 10.0 mi South 4.6 mph - N/A   Mostly Cloudy
9:55 AM 73.0 °F 69.1 °F 87% 30.05 in 10.0 mi South 3.5 mph - N/A   Mostly Cloudy
10:33 AM 73.0 °F 69.1 °F 87% 30.05 in 10.0 mi SW 5.8 mph - N/A   Mostly Cloudy
11:53 AM 75.0 °F 70.0 °F 84% 30.04 in 10.0 mi Calm Calm - N/A   Mostly Cloudy
11:57 AM 73.9 °F 70.0 °F 87% 30.07 in 10.0 mi South 3.5 mph - N/A   Mostly Cloudy
12:45 PM 73.9 °F 70.0 °F 87% 30.06 in 10.0 mi West 3.5 mph - N/A   Overcast
12:53 PM 73.9 °F 70.0 °F 87% 30.03 in 10.0 mi Calm Calm - N/A   Overcast
1:20 PM 75.0 °F 70.0 °F 84% 30.05 in 10.0 mi Calm Calm - N/A   Mostly Cloudy
1:53 PM 75.9 °F 70.0 °F 82% 30.02 in 10.0 mi Calm Calm - N/A   Mostly Cloudy
2:53 PM 77.0 °F 70.0 °F 79% 30.00 in 10.0 mi Calm Calm - N/A   Mostly Cloudy
3:53 PM 78.1 °F 70.0 °F 76% 29.98 in 10.0 mi ESE 4.6 mph - N/A   Mostly Cloudy
4:11 PM 79.0 °F 70.0 °F 74% 30.00 in 10.0 mi Variable 4.6 mph - N/A   Partly Cloudy
4:53 PM 79.0 °F 70.0 °F 74% 29.97 in 10.0 mi SE 5.8 mph - N/A   Mostly Cloudy
5:53 PM 79.0 °F 71.1 °F 77% 29.97 in 10.0 mi South 5.8 mph - N/A   Scattered Clouds
6:53 PM 73.0 °F 71.1 °F 93% 29.98 in 5.0 mi NNE 4.6 mph - 0.01 in Rain Light Rain
7:53 PM 72.0 °F 71.1 °F 97% 29.99 in 10.0 mi Calm Calm - 0.01 in   Mostly Cloudy
9:53 PM 71.1 °F 70.0 °F 96% 30.01 in 10.0 mi ENE 5.8 mph - N/A   Scattered Clouds
10:53 PM 71.1 °F 70.0 °F 96% 30.01 in 10.0 mi East 8.1 mph - N/A   Partly Cloudy
11:53 PM 71.1 °F 70.0 °F 96% 30.01 in 10.0 mi ENE 4.6 mph - N/A   Mostly Cloudy